SCP
0 0 0 0 0 0 0 0 0 0 0 0 0 0 -0 0 0 0 0 0 0 0 0 0 -0 -0 0 0 -0 -0 -0 0 0 0 0 0 -0 0 0 0 0 0 0 0 0 0 0 1 0 0 0 3 2 1
0 0 0 0 0 0 0 0 0 0 0 0 0 0 -0 -0 -0 0 0 0 0 0 0 -0 -0 -0 -0 -0 -0 -0 -0 -0 0 0 0 0 -0 0 0 0 0 0 0 0 0 1 1 2 2 3 4 5 8 5
0 0 0 0 0 0 0 0 0 0 0 0 0 0 0 0 0 0 0 0 0 -0 -0 -0 -0 -0 -0 -0 0 -0 -0 0 0 -0 0 0 0 0 0 0 0 0 0 0 0 1 0 1 1 3 3 3 2 2
0 0 0 0 0 0 0 0 0 0 0 0 0 0 0 0 0 0 0 0 0 0 -0 -0 -0 -0 -0 0 -0 -0 -0 0 -0 0 0 0 0 0 0 0 0 0 0 0 0 0 0 1 1 1 1 0 0 0
0 0 0 0 0 0 0 0 0 0 0 0 0 0 0 0 0 0 0 0 0 0 0 0 -0 0 -0 -0 -0 -0 0 0 0 0 0 0 0 0 0 0 0 0 0 0 0 0 0 0 0 0 0 0 0 0
0 0 0 0 0 0 0 0 0 0 0 0 0 0 0 0 0 0 0 0 0 -0 0 0 0 0 -0 -0 -0 0 0 0 0 0 0 0 0 0 0 0 0 0 0 0 0 0 0 0 0 0 0 0 0 0
0 0 0 0 0 0 0 0 0 0 0 0 0 0 0 0 0 0 0 0 0 -0 0 0 0 0 0 0 -0 0 0 0 0 0 0 0 0 0 0 0 0 0 0 0 0 0 0 0 0 0 0 0 0 0
0 0 0 0 0 0 0 0 0 0 0 0 0 0 0 0 0 0 0 0 0 0 0 0 0 0 0 0 0 0 0 0 0 0 0 0 0 0 0 0 0 0 0 0 0 0 0 0 0 0 0 0 0 0
0 0 0 0 0 0 0 0 0 0 0 0 0 0 0 0 0 0 0 0 0 0 0 0 0 0 -0 -0 -0 0 -0 0 0 0 0 0 0 0 0 0 0 0 0 0 0 0 0 0 0 0 0 0 0 0
0 0 0 0 0 0 0 0 -0 -0 0 0 0 0 0 0 0 0 0 0 0 0 0 0 0 0 0 0 0 0 -0 -0 0 0 0 0 0 0 0 0 0 0 0 0 0 0 0 0 0 0 0 0 0 0
0 0 0 0 0 0 -0 -0 -0 -0 0 0 0 0 0 0 0 0 0 0 0 0 0 0 0 0 0 0 0 -0 0 0 0 0 0 0 0 0 0 0 0 0 -0 0 0 0 0 0 0 0 0 0 0 0
0 0 0 0 0 -0 -0 -0 -0 0 0 0 0 0 0 0 0 0 0 0 0 0 0 0 0 0 0 0 0 0 0 0 0 0 0 0 0 0 0 0 0 0 0 0 0 0 0 0 0 0 0 0 0 0
0 0 0 0 0 0 -0 -0 -0 0 0 0 0 0 0 0 0 0 0 0 0 0 0 0 0 0 0 0 0 0 0 0 0 0 0 0 0 0 0 0 -0 0 0 0 0 -0 0 0 0 0 0 0 -0 -0
0 0 0 0 0 0 0 -0 -0 0 0 0 0 0 0 0 0 0 0 0 0 0 0 0 0 0 0 0 0 0 0 0 0 0 0 0 0 0 0 -0 0 0 -0 -0 0 0 -0 -0 0 -0 0 0 0 -0
0 0 0 0 0 0 0 -0 0 0 0 0 -0 0 0 0 0 0 0 0 0 0 0 0 0 0 0 0 0 0 0 0 0 0 0 0 0 0 0 -0 -0 0 0 -0 -0 -0 -0 -0 -0 -0 -0 0 0 0
0 0 0 -0 -0 0 -0 0 0 0 0 0 0 0 0 0 0 0 0 0 0 0 0 0 0 0 0 0 0 0 0 0 0 0 0 0 0 0 0 0 0 -0 0 -0 -0 0 0 -0 0 0 0 0 0 0
0 0 -0 -0 -0 -0 0 0 0 0 0 0 0 0 -0 0 0 0 0 0 0 0 0 0 0 0 0 0 0 0 0 0 0 0 0 0 0 0 -0 0 -0 -0 -0 -0 -0 -0 -0 -0 0 0 0 0 0 0
0 0 0 0 0 0 0 0 0 0 0 0 0 0 0 0 0 0 0 0 0 0 0 0 0 0 0 0 0 0 0 0 0 0 0 0 -0 -0 -0 0 0 -0 -0 -0 -0 -0 -0 -0 -0 0 0 0 0 0
0 0 -0 0 0 0 0 0 0 0 0 0 0 0 0 0 0 0 0 0 0 0 0 0 0 0 0 0 0 0 -0 -0 -0 -0 -0 -0 -0 -0 -0 -0 -0 -0 0 0 0 -0 0 0 0 0 0 0 0 0
0 0 0 0 0 0 0 0 0 0 0 0 0 0 0 0 0 0 0 0 0 0 -0 0 -0 -0 0 0 0 0 -0 -0 -0 0 0 -0 -0 0 -0 -0 -0 0 0 0 0 0 0 -0 0 0 0 0 0 0
0 0 0 0 0 0 0 0 0 0 0 0 0 0 0 0 0 0 0 0 0 -0 -0 -0 -0 0 0 0 -0 -0 -0 0 0 0 0 -0 -0 -0 -0 -0 0 0 0 0 0 -0 -0 -0 0 0 0 0 0 0
0 0 0 0 0 0 0 0 0 0 0 0 0 0 0 0 0 0 0 0 -0 -0 -0 -0 -0 -0 0 -0 -0 -0 -0 0 -0 -0 0 0 0 0 0 0 0 0 0 0 0 0 0 -0 -0 0 0 0 0 0
0 0 0 0 0 0 0 0 0 0 0 0 0 0 0 0 0 0 0 0 0 0 0 0 -0 -0 -0 -0 0 -0 -0 -0 0 0 0 0 0 0 0 0 0 0 0 0 0 0 0 0 0 0 0 0 0 0
0 0 0 0 0 0 0 0 0 0 0 0 0 0 0 0 0 0 0 0 -0 0 0 0 0 0 0 0 -0 -0 -0 0 0 0 0 0 0 0 0 0 0 0 0 0 0 0 0 0 0 0 0 0 0 0
0 0 0 0 0 0 0 0 0 0 0 0 0 0 0 0 0 0 0 0 0 0 0 0 0 0 0 0 0 0 0 0 0 0 0 0 0 0 0 0 0 0 0 0 0 0 0 0 0 0 0 0 0 0
0 0 0 0 0 -0 0 0 0 0 0 0 0 0 0 0 0 0 0 0 0 0 0 0 -0 0 0 0 0 0 0 0 0 0 0 0 0 0 0 0 0 0 0 0 0 0 0 0 0 0 0 0 0 0
-0 0 0 0 0 0 0 0 0 0 0 0 0 0 0 0 0 0 0 0 0 0 -0 -0 -0 0 0 0 0 0 0 0 0 0 0 0 0 0 0 0 0 0 0 0 0 0 0 0 0 0 0 0 0 0
0 0 0 0 0 0 0 0 0 0 0 0 0 0 0 0 0 0 0 0 -0 0 0 0 0 0 0 0 0 0 0 0 0 0 0 0 0 0 0 0 0 0 0 0 0 0 0 0 0 0 0 0 0 0
0 0 0 0 0 0 0 0 0 0 0 0 0 0 0 0 0 0 0 0 0 0 0 0 0 0 0 0 0 0 0 0 0 0 0 0 0 0 0 0 0 0 0 0 0 0 0 0 0 0 0 0 0 0
0 0 0 0 0 0 0 0 0 0 0 0 0 0 0 0 0 0 0 0 0 0 0 0 0 0 0 0 0 0 0 0 0 0 0 0 0 0 0 0 0 0 0 0 0 0 0 0 0 0 0 0 0 0
0 0 0 0 0 0 0 0 0 0 0 0 0 0 0 0 0 0 0 0 0 0 0 0 0 0 0 0 0 0 0 0 0 0 0 0 0 0 0 0 0 0 0 0 0 0 0 0 0 0 0 0 0 -0
0 0 0 0 0 0 0 0 0 0 0 0 0 0 0 0 0 0 0 0 0 0 0 0 0 0 0 0 0 0 0 0 0 0 0 0 0 0 0 0 0 0 0 0 0 0 0 0 0 0 0 0 -0 -0
0 0 0 0 0 0 0 0 0 0 0 0 0 0 0 0 0 0 0 0 0 0 0 0 0 0 0 0 0 0 0 0 0 0 0 0 0 0 0 0 0 0 0 0 0 0 0 0 0 0 0 0 0 -0
Wind_Speed_500mb
51 52 50 48 49 48 48 45 42 39 39 38 34 35 33 29 24 25 33 24 31 25 54 54 66 55 47 40 21 11 14 8 10 6 7 7 8 7 12 13 8 7 8 11 8 5 7 7 11 13 14 25 24 25
47 49 49 49 49 48 47 45 43 41 41 43 36 36 35 32 27 28 36 22 32 39 41 67 72 61 57 54 51 22 11 6 7 8 8 3 6 4 8 6 12 6 7 11 18 5 2 36 22 23 42 47 35 37
48 48 48 49 50 50 48 46 46 44 43 42 42 37 31 28 24 25 35 35 32 33 53 39 34 37 41 51 48 43 39 35 13 19 6 5 13 5 8 2 6 6 18 11 15 16 19 11 10 55 51 52 40 37
47 47 48 50 50 48 47 48 49 46 41 40 38 34 32 31 28 28 31 28 29 18 10 30 30 55 41 41 43 64 64 42 27 37 15 4 5 10 6 6 4 7 17 14 13 16 50 39 41 53 50 39 38 42
47 47 47 50 50 50 51 52 51 48 47 47 44 38 34 32 32 35 38 38 23 23 9 37 79 10 21 24 43 53 67 51 26 11 9 3 7 7 3 5 3 5 7 4 6 26 16 36 41 41 51 45 46 46
47 49 49 50 52 53 57 60 59 55 51 48 44 40 34 30 27 28 11 1 7 17 13 9 31 31 24 17 34 41 49 38 35 7 4 7 13 10 4 3 7 16 28 28 9 32 58 44 79 57 59 47 43 50
43 47 52 54 56 60 66 67 64 56 50 47 41 36 32 30 29 17 14 19 34 29 11 11 11 14 33 5 19 42 33 27 8 3 1 6 8 9 4 5 5 33 13 34 37 34 45 43 39 67 58 54 55 54
44 49 55 60 63 65 69 71 65 57 49 39 34 31 32 32 34 30 18 15 14 14 8 5 10 9 22 10 6 18 16 14 8 3 6 4 12 5 5 19 22 23 18 40 48 55 42 37 32 45 54 59 61 58
44 52 58 63 65 65 72 72 67 60 50 28 30 37 27 9 6 12 15 29 21 10 8 6 5 6 8 3 7 12 13 4 11 4 2 3 4 4 8 7 7 20 25 32 43 51 40 41 31 41 51 54 62 53
47 53 58 64 65 65 73 73 69 63 32 30 25 10 8 11 24 27 4 3 3 9 11 6 9 7 9 3 3 4 8 4 2 4 4 6 6 18 19 9 17 21 39 39 32 26 31 36 49 48 48 43 41 46
50 55 58 64 60 67 73 72 66 59 26 23 13 11 26 29 12 3 5 5 5 6 14 14 27 11 14 5 4 3 4 5 3 2 3 5 5 13 24 19 22 24 32 21 21 23 31 38 30 32 40 36 34 28
50 52 57 60 54 67 72 62 54 44 25 26 29 23 18 10 8 6 4 4 5 7 10 7 7 11 6 3 6 3 1 8 6 7 5 4 7 21 36 37 38 35 29 23 28 41 33 30 28 26 27 28 31 27
48 50 55 54 53 67 67 47 38 39 30 15 14 10 10 7 8 12 12 6 10 6 13 17 10 7 9 7 6 1 8 9 2 7 5 3 14 11 10 6 16 20 15 16 20 26 13 21 22 27 27 18 17 19
50 48 53 46 56 65 50 33 32 34 17 8 11 16 10 10 6 12 21 22 16 24 35 22 6 4 7 2 2 7 8 10 8 8 5 8 28 11 16 36 20 8 19 27 25 34 46 40 40 31 24 25 25 29
50 47 48 39 59 51 32 13 24 27 11 10 11 7 11 34 40 44 50 55 67 63 7 6 5 6 7 8 10 11 10 10 11 9 5 30 38 30 27 27 35 42 42 40 36 41 37 33 34 35 40 35 30 31
45 42 30 49 49 23 23 18 17 12 10 10 6 15 34 33 36 56 56 52 71 61 26 23 12 10 16 9 12 15 7 9 5 5 25 33 34 41 39 44 31 34 32 38 35 37 32 32 32 31 30 31 27 26
36 20 39 42 35 13 27 34 15 8 13 12 15 41 44 29 32 49 52 51 52 60 23 10 14 16 6 9 10 5 1 5 16 21 22 24 16 23 37 44 49 45 31 38 48 49 41 51 37 36 32 38 28 22
33 32 30 33 20 18 25 21 15 10 16 23 22 32 41 47 46 51 56 62 46 45 33 14 15 16 11 10 8 5 5 11 17 26 32 32 33 33 39 39 40 44 41 46 44 45 42 45 53 46 38 40 31 36
27 25 27 26 26 15 10 14 13 10 26 37 34 41 44 46 54 58 58 63 62 47 36 16 14 11 15 21 32 41 48 40 29 29 31 34 34 25 22 24 32 38 40 38 41 44 44 45 39 36 44 38 39 39
23 24 24 29 29 15 8 9 16 9 9 20 28 39 44 40 45 57 61 57 44 44 31 13 13 31 39 48 47 45 34 30 40 41 35 35 31 33 30 24 23 28 34 38 40 41 41 43 42 39 44 39 35 38
25 17 25 23 14 16 8 11 12 10 11 12 13 25 20 34 46 50 49 37 43 31 23 32 44 53 55 59 66 65 52 32 42 49 43 21 22 18 27 25 27 28 34 39 41 42 43 38 35 40 35 31 36 34
16 12 16 15 10 6 5 8 5 10 8 5 8 11 9 15 18 24 37 35 22 31 45 44 38 39 57 58 56 60 60 50 48 45 47 54 56 51 52 46 36 37 36 37 36 42 41 37 33 34 32 26 31 33
16 9 9 6 4 4 4 4 6 6 3 1 4 5 5 6 13 19 12 31 39 44 46 40 32 47 46 44 51 53 49 54 53 47 47 46 44 45 44 49 39 48 51 48 40 36 34 31 37 41 31 30 28 34
9 4 4 5 6 7 7 8 8 7 8 2 1 3 7 8 7 8 8 34 42 47 51 46 49 47 46 44 40 45 45 46 51 50 47 54 30 41 39 36 33 40 43 42 39 37 34 38 35 38 42 34 31 35
6 3 6 10 6 7 7 3 2 6 9 9 7 7 8 3 4 6 6 24 36 36 36 38 41 36 30 31 35 40 43 39 38 47 52 44 35 32 39 41 40 33 42 39 36 36 40 36 37 32 35 37 36 31
6 4 4 16 23 15 14 11 11 6 7 10 12 10 9 4 7 8 7 16 16 25 30 35 33 26 30 41 40 38 40 37 31 35 50 31 31 40 41 41 40 37 36 28 30 32 31 33 36 35 33 29 32 27
11 3 16 15 11 13 13 12 13 17 10 10 8 6 7 7 7 5 9 15 23 27 27 22 25 32 34 37 34 34 33 36 35 26 34 39 32 27 36 39 36 30 29 24 26 25 26 32 29 27 27 30 33 28
8 13 9 9 10 9 18 22 15 14 18 26 10 11 7 6 3 6 11 19 18 19 27 30 17 28 32 34 30 32 30 29 32 32 22 35 40 37 31 31 29 25 31 31 26 17 24 25 23 25 29 31 33 27
14 17 14 9 13 17 12 9 16 14 18 17 7 7 6 4 1 10 14 22 27 21 19 29 28 30 30 29 32 30 28 27 30 39 38 34 37 37 33 31 30 30 26 27 28 17 28 27 26 24 23 26 27 24
19 19 9 1 6 8 15 15 22 15 19 24 22 22 14 8 5 9 20 27 30 32 31 28 26 25 26 27 27 27 27 23 27 33 29 25 28 25 27 29 29 31 25 31 28 24 26 23 25 25 27 27 29 29
6 8 9 5 3 25 21 18 16 18 16 17 13 16 10 5 1 4 16 25 23 24 23 30 26 22 21 23 23 22 18 18 26 42 39 16 17 17 24 27 23 27 25 28 25 26 26 24 24 25 26 27 28 30
7 14 18 1 17 18 15 14 16 11 9 5 13 11 7 3 4 3 10 18 20 20 23 23 25 21 19 18 19 18 13 10 31 30 43 31 26 19 22 26 24 25 23 24 20 21 21 23 24 26 28 28 29 31
12 9 10 12 7 16 19 10 3 10 14 10 8 13 10 7 11 11 15 22 13 12 17 18 17 18 20 19 20 16 10 18 25 19 31 32 30 28 25 22 29 28 24 20 22 22 24 24 24 24 26 26 28 31
Wind_Direction_500mb
351 352 353 350 349 347 348 347 348 346 345 341 333 326 326 323 306 280 283 281 262 263 274 267 272 270 280 275 279 321 345 353 283 241 183 191 199 255 301 301 333 29 44 313 329 158 255 1 71 189 191 72 80 75
353 355 354 354 352 350 349 345 342 338 334 337 332 328 322 314 305 295 289 286 280 256 266 276 273 253 254 259 266 261 207 174 289 305 335 313 247 125 290 293 103 220 97 301 315 325 131 64 76 60 99 82 59 74
353 353 353 351 350 348 346 345 343 340 339 337 334 331 331 330 323 313 303 303 292 285 297 279 284 302 286 270 254 248 263 247 215 332 257 251 255 142 243 55 304 12 29 287 302 342 64 37 62 94 84 69 78 72
352 349 348 348 346 346 346 347 347 346 342 337 334 331 330 328 323 319 320 322 299 275 267 287 303 296 266 265 259 240 245 255 265 298 285 271 309 345 9 315 329 41 327 289 284 14 339 60 80 94 88 78 82 80
350 349 348 348 348 348 347 345 343 342 337 333 328 324 320 318 318 314 315 314 289 265 289 293 308 1 300 252 238 240 227 233 213 247 240 268 280 294 275 237 104 165 271 321 18 359 282 22 61 84 81 78 79 84
354 351 351 349 349 348 345 340 336 332 329 322 317 315 312 311 315 330 321 60 47 342 296 300 303 325 324 243 244 193 210 214 218 223 350 290 266 279 262 238 230 299 288 251 152 66 46 4 58 74 87 82 78 75
352 349 347 347 347 347 346 344 341 336 331 326 317 314 314 309 298 269 255 295 308 304 268 295 308 291 309 227 184 177 196 207 176 88 261 253 271 299 261 244 278 353 122 109 120 98 82 16 36 50 81 75 68 69
348 346 345 343 342 343 344 343 340 335 327 320 320 318 309 302 295 291 298 301 314 245 248 275 284 310 349 329 275 157 155 141 124 180 276 280 301 267 319 4 331 346 63 78 79 92 103 110 87 71 77 72 62 57
340 342 342 341 342 343 345 344 341 340 335 321 325 311 293 291 275 275 284 287 295 234 294 260 271 294 331 243 317 41 204 144 156 219 43 321 326 5 324 300 43 47 78 99 94 92 98 99 93 93 83 81 72 60
336 337 337 337 339 343 348 344 340 340 339 345 332 301 287 307 298 302 340 264 254 212 227 252 220 260 299 138 270 238 136 116 68 347 300 18 7 335 33 69 78 96 99 95 79 93 107 96 88 81 83 79 73 72
332 333 334 335 337 343 350 347 343 344 6 354 327 292 303 318 288 189 219 255 262 237 213 237 221 235 223 197 213 135 113 68 125 195 98 46 8 342 41 56 90 94 111 133 124 107 85 74 83 89 81 81 79 71
329 331 332 333 334 344 351 348 347 357 348 331 319 310 321 306 309 298 253 119 293 291 270 227 295 271 59 82 52 136 172 167 63 115 79 53 333 55 75 77 87 92 98 106 96 78 81 77 73 70 64 72 76 60
328 330 329 329 335 346 347 347 355 346 349 354 332 308 322 326 5 326 306 72 306 256 264 279 279 171 173 165 222 273 50 54 192 55 58 220 271 307 335 155 155 131 115 95 103 81 74 73 82 57 55 66 103 83
324 329 328 327 338 343 343 342 354 357 354 333 321 342 20 355 314 263 301 321 245 293 288 308 357 58 156 133 17 39 48 31 60 41 13 358 4 74 111 82 100 120 84 76 82 94 78 77 73 70 78 84 92 79
321 326 324 329 336 342 340 340 339 346 4 352 18 322 357 340 341 341 346 347 354 358 319 302 20 15 47 49 29 26 45 41 25 23 352 14 43 46 54 89 85 83 80 68 65 76 77 72 66 70 61 68 90 83
328 332 327 327 337 1 11 349 335 337 336 354 336 350 356 357 353 351 345 0 359 11 29 31 26 39 32 33 22 22 37 16 316 335 23 38 47 71 74 79 72 72 85 73 76 63 68 60 64 71 69 59 64 67
339 334 331 341 353 37 21 3 347 15 356 38 339 18 25 7 352 351 354 8 18 30 18 26 38 38 25 31 27 36 22 307 349 16 32 29 39 46 65 70 65 78 85 60 71 73 74 64 68 65 55 56 58 73
346 351 358 3 28 47 33 2 0 36 16 24 4 3 3 17 17 12 20 29 29 25 34 40 52 39 25 28 32 50 293 43 58 53 75 80 62 67 69 69 72 74 68 62 61 64 62 54 50 40 35 39 44 48
4 20 36 32 20 18 23 13 11 341 38 25 356 24 29 29 31 32 37 37 44 45 47 40 50 36 32 24 32 46 65 72 57 52 59 59 60 62 65 68 72 70 61 57 53 55 51 47 42 40 27 35 41 35
39 51 58 43 31 11 4 10 341 6 31 356 43 41 36 44 45 47 44 41 45 46 46 46 54 47 40 36 35 36 41 59 60 53 52 56 50 48 59 63 58 56 62 56 52 47 43 33 26 28 26 32 35 20
28 49 57 31 28 37 39 356 359 23 329 348 49 47 52 46 44 43 38 40 46 46 48 64 66 53 47 42 42 37 43 43 46 35 19 12 39 25 46 48 65 68 60 49 51 50 44 35 18 20 21 24 18 26
4 55 62 12 10 14 28 2 342 321 303 326 56 64 31 31 45 36 44 49 54 55 55 49 60 56 43 35 30 34 37 37 29 29 33 31 39 40 44 45 57 61 63 53 52 44 36 25 19 10 14 22 14 33
14 47 21 338 333 309 303 310 282 314 301 32 42 53 56 36 9 34 48 37 47 41 37 41 54 49 44 31 22 19 22 21 22 24 23 20 28 38 52 56 55 53 42 36 33 27 25 21 11 23 25 30 34 42
10 32 299 267 265 257 264 222 227 235 233 217 182 186 144 100 70 72 62 34 29 32 43 40 33 30 26 23 31 34 31 20 15 16 17 10 9 61 57 43 40 41 37 24 31 32 26 22 19 31 30 20 12 17
355 349 303 277 266 265 256 202 41 4 319 295 123 95 133 13 327 61 39 21 16 20 23 20 16 11 11 19 25 34 32 26 15 10 8 7 44 43 49 52 42 40 28 20 19 21 17 13 12 9 13 12 8 2
28 360 320 4 34 0 326 343 341 42 5 343 57 97 119 159 60 52 41 3 357 1 357 354 354 3 24 34 31 37 41 26 10 12 8 31 44 46 37 32 31 22 21 17 19 11 12 13 8 5 2 4 6 19
42 351 289 342 263 252 248 280 4 12 33 16 347 48 90 64 61 45 315 343 343 349 355 1 356 9 27 24 26 31 23 14 11 1 27 47 47 47 39 28 25 13 8 10 10 10 12 7 5 7 9 15 21 25
224 224 289 285 300 280 36 30 21 26 5 338 14 37 56 44 54 333 323 341 344 349 351 342 0 36 31 24 24 19 16 11 6 13 37 34 30 30 30 18 14 12 10 9 14 7 19 12 10 12 12 13 11 8
204 203 193 283 29 33 49 53 47 28 357 7 53 60 90 144 73 1 349 337 333 329 357 17 28 20 21 16 19 17 19 25 24 21 17 10 10 12 12 11 10 7 9 7 353 29 30 21 26 23 16 12 6 6
175 175 122 157 61 88 70 94 100 97 72 82 103 112 112 124 87 9 4 12 10 11 11 4 14 22 23 14 15 18 17 34 40 23 14 1 357 357 7 8 7 9 4 4 14 12 13 16 12 12 12 8 4 3
13 82 105 133 179 124 129 135 123 122 104 94 108 122 137 153 8 19 7 10 14 14 14 5 15 24 23 14 16 7 15 27 18 10 14 14 4 11 13 6 4 4 5 3 6 14 17 14 14 12 12 10 8 5
67 48 349 68 137 138 146 154 166 153 139 100 97 128 130 149 342 41 5 8 11 22 15 8 12 28 20 15 6 3 1 353 2 16 22 30 28 27 27 6 8 5 9 9 11 14 15 16 17 15 13 12 9 5
339 15 4 3 96 184 180 150 148 130 145 139 121 132 109 94 42 67 23 11 25 34 24 13 12 10 6 9 12 7 334 0 0 8 22 24 15 360 2 9 20 19 12 12 17 18 18 18 17 13 11 10 7 360
Wind_Speed_850mb
51 52 50 48 49 48 48 45 42 39 39 38 34 35 33 29 24 25 33 24 31 25 54 54 66 55 47 40 21 11 14 8 10 6 7 7 8 7 12 13 8 7 8 11 8 5 7 7 11 13 14 25 24 25
47 49 49 49 49 48 47 45 43 41 41 43 36 36 35 32 27 28 36 22 32 39 41 67 72 61 57 54 51 22 11 6 7 8 8 3 6 4 8 6 12 6 7 11 18 5 2 36 22 23 42 47 35 37
48 48 48 49 50 50 48 46 46 44 43 42 42 37 31 28 24 25 35 35 32 33 53 39 34 37 41 51 48 43 39 35 13 19 6 5 13 5 8 2 6 6 18 11 15 16 19 11 10 55 51 52 40 37
47 47 48 50 50 48 47 48 49 46 41 40 38 34 32 31 28 28 31 28 29 18 10 30 30 55 41 41 43 64 64 42 27 37 15 4 5 10 6 6 4 7 17 14 13 16 50 39 41 53 50 39 38 42
47 47 47 50 50 50 51 52 51 48 47 47 44 38 34 32 32 35 38 38 23 23 9 37 79 10 21 24 43 53 67 51 26 11 9 3 7 7 3 5 3 5 7 4 6 26 16 36 41 41 51 45 46 46
47 49 49 50 52 53 57 60 59 55 51 48 44 40 34 30 27 28 11 1 7 17 13 9 31 31 24 17 34 41 49 38 35 7 4 7 13 10 4 3 7 16 28 28 9 32 58 44 79 57 59 47 43 50
43 47 52 54 56 60 66 67 64 56 50 47 41 36 32 30 29 17 14 19 34 29 11 11 11 14 33 5 19 42 33 27 8 3 1 6 8 9 4 5 5 33 13 34 37 34 45 43 39 67 58 54 55 54
44 49 55 60 63 65 69 71 65 57 49 39 34 31 32 32 34 30 18 15 14 14 8 5 10 9 22 10 6 18 16 14 8 3 6 4 12 5 5 19 22 23 18 40 48 55 42 37 32 45 54 59 61 58
44 52 58 63 65 65 72 72 67 60 50 28 30 37 27 9 6 12 15 29 21 10 8 6 5 6 8 3 7 12 13 4 11 4 2 3 4 4 8 7 7 20 25 32 43 51 40 41 31 41 51 54 62 53
47 53 58 64 65 65 73 73 69 63 32 30 25 10 8 11 24 27 4 3 3 9 11 6 9 7 9 3 3 4 8 4 2 4 4 6 6 18 19 9 17 21 39 39 32 26 31 36 49 48 48 43 41 46
50 55 58 64 60 67 73 72 66 59 26 23 13 11 26 29 12 3 5 5 5 6 14 14 27 11 14 5 4 3 4 5 3 2 3 5 5 13 24 19 22 24 32 21 21 23 31 38 30 32 40 36 34 28
50 52 57 60 54 67 72 62 54 44 25 26 29 23 18 10 8 6 4 4 5 7 10 7 7 11 6 3 6 3 1 8 6 7 5 4 7 21 36 37 38 35 29 23 28 41 33 30 28 26 27 28 31 27
48 50 55 54 53 67 67 47 38 39 30 15 14 10 10 7 8 12 12 6 10 6 13 17 10 7 9 7 6 1 8 9 2 7 5 3 14 11 10 6 16 20 15 16 20 26 13 21 22 27 27 18 17 19
50 48 53 46 56 65 50 33 32 34 17 8 11 16 10 10 6 12 21 22 16 24 35 22 6 4 7 2 2 7 8 10 8 8 5 8 28 11 16 36 20 8 19 27 25 34 46 40 40 31 24 25 25 29
50 47 48 39 59 51 32 13 24 27 11 10 11 7 11 34 40 44 50 55 67 63 7 6 5 6 7 8 10 11 10 10 11 9 5 30 38 30 27 27 35 42 42 40 36 41 37 33 34 35 40 35 30 31
45 42 30 49 49 23 23 18 17 12 10 10 6 15 34 33 36 56 56 52 71 61 26 23 12 10 16 9 12 15 7 9 5 5 25 33 34 41 39 44 31 34 32 38 35 37 32 32 32 31 30 31 27 26
36 20 39 42 35 13 27 34 15 8 13 12 15 41 44 29 32 49 52 51 52 60 23 10 14 16 6 9 10 5 1 5 16 21 22 24 16 23 37 44 49 45 31 38 48 49 41 51 37 36 32 38 28 22
33 32 30 33 20 18 25 21 15 10 16 23 22 32 41 47 46 51 56 62 46 45 33 14 15 16 11 10 8 5 5 11 17 26 32 32 33 33 39 39 40 44 41 46 44 45 42 45 53 46 38 40 31 36
27 25 27 26 26 15 10 14 13 10 26 37 34 41 44 46 54 58 58 63 62 47 36 16 14 11 15 21 32 41 48 40 29 29 31 34 34 25 22 24 32 38 40 38 41 44 44 45 39 36 44 38 39 39
23 24 24 29 29 15 8 9 16 9 9 20 28 39 44 40 45 57 61 57 44 44 31 13 13 31 39 48 47 45 34 30 40 41 35 35 31 33 30 24 23 28 34 38 40 41 41 43 42 39 44 39 35 38
25 17 25 23 14 16 8 11 12 10 11 12 13 25 20 34 46 50 49 37 43 31 23 32 44 53 55 59 66 65 52 32 42 49 43 21 22 18 27 25 27 28 34 39 41 42 43 38 35 40 35 31 36 34
16 12 16 15 10 6 5 8 5 10 8 5 8 11 9 15 18 24 37 35 22 31 45 44 38 39 57 58 56 60 60 50 48 45 47 54 56 51 52 46 36 37 36 37 36 42 41 37 33 34 32 26 31 33
16 9 9 6 4 4 4 4 6 6 3 1 4 5 5 6 13 19 12 31 39 44 46 40 32 47 46 44 51 53 49 54 53 47 47 46 44 45 44 49 39 48 51 48 40 36 34 31 37 41 31 30 28 34
9 4 4 5 6 7 7 8 8 7 8 2 1 3 7 8 7 8 8 34 42 47 51 46 49 47 46 44 40 45 45 46 51 50 47 54 30 41 39 36 33 40 43 42 39 37 34 38 35 38 42 34 31 35
6 3 6 10 6 7 7 3 2 6 9 9 7 7 8 3 4 6 6 24 36 36 36 38 41 36 30 31 35 40 43 39 38 47 52 44 35 32 39 41 40 33 42 39 36 36 40 36 37 32 35 37 36 31
6 4 4 16 23 15 14 11 11 6 7 10 12 10 9 4 7 8 7 16 16 25 30 35 33 26 30 41 40 38 40 37 31 35 50 31 31 40 41 41 40 37 36 28 30 32 31 33 36 35 33 29 32 27
11 3 16 15 11 13 13 12 13 17 10 10 8 6 7 7 7 5 9 15 23 27 27 22 25 32 34 37 34 34 33 36 35 26 34 39 32 27 36 39 36 30 29 24 26 25 26 32 29 27 27 30 33 28
8 13 9 9 10 9 18 22 15 14 18 26 10 11 7 6 3 6 11 19 18 19 27 30 17 28 32 34 30 32 30 29 32 32 22 35 40 37 31 31 29 25 31 31 26 17 24 25 23 25 29 31 33 27
14 17 14 9 13 17 12 9 16 14 18 17 7 7 6 4 1 10 14 22 27 21 19 29 28 30 30 29 32 30 28 27 30 39 38 34 37 37 33 31 30 30 26 27 28 17 28 27 26 24 23 26 27 24
19 19 9 1 6 8 15 15 22 15 19 24 22 22 14 8 5 9 20 27 30 32 31 28 26 25 26 27 27 27 27 23 27 33 29 25 28 25 27 29 29 31 25 31 28 24 26 23 25 25 27 27 29 29
6 8 9 5 3 25 21 18 16 18 16 17 13 16 10 5 1 4 16 25 23 24 23 30 26 22 21 23 23 22 18 18 26 42 39 16 17 17 24 27 23 27 25 28 25 26 26 24 24 25 26 27 28 30
7 14 18 1 17 18 15 14 16 11 9 5 13 11 7 3 4 3 10 18 20 20 23 23 25 21 19 18 19 18 13 10 31 30 43 31 26 19 22 26 24 25 23 24 20 21 21 23 24 26 28 28 29 31
12 9 10 12 7 16 19 10 3 10 14 10 8 13 10 7 11 11 15 22 13 12 17 18 17 18 20 19 20 16 10 18 25 19 31 32 30 28 25 22 29 28 24 20 22 22 24 24 24 24 26 26 28 31
Wind_Direction_850mb
351 352 353 350 349 347 348 347 348 346 345 341 333 326 326 323 306 280 283 281 262 263 274 267 272 270 280 275 279 321 345 353 283 241 183 191 199 255 301 301 333 29 44 313 329 158 255 1 71 189 191 72 80 75
353 355 354 354 352 350 349 345 342 338 334 337 332 328 322 314 305 295 289 286 280 256 266 276 273 253 254 259 266 261 207 174 289 305 335 313 247 125 290 293 103 220 97 301 315 325 131 64 76 60 99 82 59 74
353 353 353 351 350 348 346 345 343 340 339 337 334 331 331 330 323 313 303 303 292 285 297 279 284 302 286 270 254 248 263 247 215 332 257 251 255 142 243 55 304 12 29 287 302 342 64 37 62 94 84 69 78 72
352 349 348 348 346 346 346 347 347 346 342 337 334 331 330 328 323 319 320 322 299 275 267 287 303 296 266 265 259 240 245 255 265 298 285 271 309 345 9 315 329 41 327 289 284 14 339 60 80 94 88 78 82 80
350 349 348 348 348 348 347 345 343 342 337 333 328 324 320 318 318 314 315 314 289 265 289 293 308 1 300 252 238 240 227 233 213 247 240 268 280 294 275 237 104 165 271 321 18 359 282 22 61 84 81 78 79 84
354 351 351 349 349 348 345 340 336 332 329 322 317 315 312 311 315 330 321 60 47 342 296 300 303 325 324 243 244 193 210 214 218 223 350 290 266 279 262 238 230 299 288 251 152 66 46 4 58 74 87 82 78 75
352 349 347 347 347 347 346 344 341 336 331 326 317 314 314 309 298 269 255 295 308 304 268 295 308 291 309 227 184 177 196 207 176 88 261 253 271 299 261 244 278 353 122 109 120 98 82 16 36 50 81 75 68 69
348 346 345 343 342 343 344 343 340 335 327 320 320 318 309 302 295 291 298 301 314 245 248 275 284 310 349 329 275 157 155 141 124 180 276 280 301 267 319 4 331 346 63 78 79 92 103 110 87 71 77 72 62 57
340 342 342 341 342 343 345 344 341 340 335 321 325 311 293 291 275 275 284 287 295 234 294 260 271 294 331 243 317 41 204 144 156 219 43 321 326 5 324 300 43 47 78 99 94 92 98 99 93 93 83 81 72 60
336 337 337 337 339 343 348 344 340 340 339 345 332 301 287 307 298 302 340 264 254 212 227 252 220 260 299 138 270 238 136 116 68 347 300 18 7 335 33 69 78 96 99 95 79 93 107 96 88 81 83 79 73 72
332 333 334 335 337 343 350 347 343 344 6 354 327 292 303 318 288 189 219 255 262 237 213 237 221 235 223 197 213 135 113 68 125 195 98 46 8 342 41 56 90 94 111 133 124 107 85 74 83 89 81 81 79 71
329 331 332 333 334 344 351 348 347 357 348 331 319 310 321 306 309 298 253 119 293 291 270 227 295 271 59 82 52 136 172 167 63 115 79 53 333 55 75 77 87 92 98 106 96 78 81 77 73 70 64 72 76 60
328 330 329 329 335 346 347 347 355 346 349 354 332 308 322 326 5 326 306 72 306 256 264 279 279 171 173 165 222 273 50 54 192 55 58 220 271 307 335 155 155 131 115 95 103 81 74 73 82 57 55 66 103 83
324 329 328 327 338 343 343 342 354 357 354 333 321 342 20 355 314 263 301 321 245 293 288 308 357 58 156 133 17 39 48 31 60 41 13 358 4 74 111 82 100 120 84 76 82 94 78 77 73 70 78 84 92 79
321 326 324 329 336 342 340 340 339 346 4 352 18 322 357 340 341 341 346 347 354 358 319 302 20 15 47 49 29 26 45 41 25 23 352 14 43 46 54 89 85 83 80 68 65 76 77 72 66 70 61 68 90 83
328 332 327 327 337 1 11 349 335 337 336 354 336 350 356 357 353 351 345 0 359 11 29 31 26 39 32 33 22 22 37 16 316 335 23 38 47 71 74 79 72 72 85 73 76 63 68 60 64 71 69 59 64 67
339 334 331 341 353 37 21 3 347 15 356 38 339 18 25 7 352 351 354 8 18 30 18 26 38 38 25 31 27 36 22 307 349 16 32 29 39 46 65 70 65 78 85 60 71 73 74 64 68 65 55 56 58 73
346 351 358 3 28 47 33 2 0 36 16 24 4 3 3 17 17 12 20 29 29 25 34 40 52 39 25 28 32 50 293 43 58 53 75 80 62 67 69 69 72 74 68 62 61 64 62 54 50 40 35 39 44 48
4 20 36 32 20 18 23 13 11 341 38 25 356 24 29 29 31 32 37 37 44 45 47 40 50 36 32 24 32 46 65 72 57 52 59 59 60 62 65 68 72 70 61 57 53 55 51 47 42 40 27 35 41 35
39 51 58 43 31 11 4 10 341 6 31 356 43 41 36 44 45 47 44 41 45 46 46 46 54 47 40 36 35 36 41 59 60 53 52 56 50 48 59 63 58 56 62 56 52 47 43 33 26 28 26 32 35 20
28 49 57 31 28 37 39 356 359 23 329 348 49 47 52 46 44 43 38 40 46 46 48 64 66 53 47 42 42 37 43 43 46 35 19 12 39 25 46 48 65 68 60 49 51 50 44 35 18 20 21 24 18 26
4 55 62 12 10 14 28 2 342 321 303 326 56 64 31 31 45 36 44 49 54 55 55 49 60 56 43 35 30 34 37 37 29 29 33 31 39 40 44 45 57 61 63 53 52 44 36 25 19 10 14 22 14 33
14 47 21 338 333 309 303 310 282 314 301 32 42 53 56 36 9 34 48 37 47 41 37 41 54 49 44 31 22 19 22 21 22 24 23 20 28 38 52 56 55 53 42 36 33 27 25 21 11 23 25 30 34 42
10 32 299 267 265 257 264 222 227 235 233 217 182 186 144 100 70 72 62 34 29 32 43 40 33 30 26 23 31 34 31 20 15 16 17 10 9 61 57 43 40 41 37 24 31 32 26 22 19 31 30 20 12 17
355 349 303 277 266 265 256 202 41 4 319 295 123 95 133 13 327 61 39 21 16 20 23 20 16 11 11 19 25 34 32 26 15 10 8 7 44 43 49 52 42 40 28 20 19 21 17 13 12 9 13 12 8 2
28 360 320 4 34 0 326 343 341 42 5 343 57 97 119 159 60 52 41 3 357 1 357 354 354 3 24 34 31 37 41 26 10 12 8 31 44 46 37 32 31 22 21 17 19 11 12 13 8 5 2 4 6 19
42 351 289 342 263 252 248 280 4 12 33 16 347 48 90 64 61 45 315 343 343 349 355 1 356 9 27 24 26 31 23 14 11 1 27 47 47 47 39 28 25 13 8 10 10 10 12 7 5 7 9 15 21 25
224 224 289 285 300 280 36 30 21 26 5 338 14 37 56 44 54 333 323 341 344 349 351 342 0 36 31 24 24 19 16 11 6 13 37 34 30 30 30 18 14 12 10 9 14 7 19 12 10 12 12 13 11 8
204 203 193 283 29 33 49 53 47 28 357 7 53 60 90 144 73 1 349 337 333 329 357 17 28 20 21 16 19 17 19 25 24 21 17 10 10 12 12 11 10 7 9 7 353 29 30 21 26 23 16 12 6 6
175 175 122 157 61 88 70 94 100 97 72 82 103 112 112 124 87 9 4 12 10 11 11 4 14 22 23 14 15 18 17 34 40 23 14 1 357 357 7 8 7 9 4 4 14 12 13 16 12 12 12 8 4 3
13 82 105 133 179 124 129 135 123 122 104 94 108 122 137 153 8 19 7 10 14 14 14 5 15 24 23 14 16 7 15 27 18 10 14 14 4 11 13 6 4 4 5 3 6 14 17 14 14 12 12 10 8 5
67 48 349 68 137 138 146 154 166 153 139 100 97 128 130 149 342 41 5 8 11 22 15 8 12 28 20 15 6 3 1 353 2 16 22 30 28 27 27 6 8 5 9 9 11 14 15 16 17 15 13 12 9 5
339 15 4 3 96 184 180 150 148 130 145 139 121 132 109 94 42 67 23 11 25 34 24 13 12 10 6 9 12 7 334 0 0 8 22 24 15 360 2 9 20 19 12 12 17 18 18 18 17 13 11 10 7 360